DW6344 Weather Reports


time (UTC)temp
F
wind
direction
speed
knots
gust
knots
rain 1hr
in
rain 24hr
in
rain mn
in
humidity
%
barometer
mb
20260510013338 66 106 0.0 0.0 0.00 0.00 0.00 69 1007.9
20260510012834 66 106 0.0 0.0 0.00 0.00 0.00 68 1007.8
20260510012342 66 106 0.0 0.0 0.00 0.00 0.00 68 1007.8
20260510011826 66 106 0.0 0.0 0.00 0.00 0.00 67 1007.7
20260510011352 67 106 0.0 0.0 0.00 0.00 0.00 67 1007.7
20260510010901 67 106 0.0 0.0 0.00 0.00 0.00 66 1007.6
20260510010404 67 106 0.0 0.0 0.00 0.00 0.00 66 1007.6
20260510005857 67 106 0.0 0.0 0.00 0.00 0.00 65 1007.6
20260510005338 68 106 0.0 0.0 0.00 0.00 0.00 64 1007.6
20260510004839 68 106 0.0 0.0 0.00 0.00 0.00 63 1007.5
20260510004336 68 106 0.0 0.0 0.00 0.00 0.00 63 1007.5
20260510003835 69 106 0.0 0.0 0.00 0.00 0.00 62 1007.3
20260510003342 69 106 0.0 0.0 0.00 0.00 0.00 61 1007.3
20260510002830 70 106 0.0 0.0 0.00 0.00 0.00 62 1007.3
20260510002334 70 106 0.0 0.0 0.00 0.00 0.00 60 1007.3
20260510001910 71 106 0.0 0.0 0.00 0.00 0.00 60 1007.0
20260510001329 71 106 0.0 0.0 0.00 0.00 0.00 58 1006.9
20260510000844 71 106 0.0 0.0 0.00 0.00 0.00 57 1006.9
20260510000341 72 106 0.0 0.0 0.00 0.00 0.00 57 1006.8
20260509235841 72 106 0.0 0.0 0.00 0.00 0.00 55 1006.7
20260509235337 73 106 0.0 1.7 0.00 0.00 0.00 55 1006.6
20260509234904 73 106 0.0 1.7 0.00 0.00 0.00 54 1006.6
20260509234346 74 106 0.0 3.5 0.00 0.00 0.00 53 1006.7
20260509233901 74 106 0.0 3.5 0.00 0.00 0.00 52 1006.6
20260509233347 74 62 0.0 1.7 0.00 0.00 0.00 51 1006.7
20260509232827 75 80 0.0 1.7 0.00 0.00 0.00 52 1006.7
20260509232332 75 83 0.0 1.7 0.00 0.00 0.00 51 1006.7
20260509231833 75 83 0.0 0.0 0.00 0.00 0.00 50 1006.6
20260509231342 76 83 0.0 1.7 0.00 0.00 0.00 49 1006.6
20260509230828 76 83 0.0 4.3 0.00 0.00 0.00 48 1006.5
20260509230332 76 109 0.0 2.6 0.00 0.00 0.00 49 1006.7
20260509225828 75 109 0.9 2.6 0.00 0.00 0.00 47 1006.6
20260509225346 75 18 0.0 0.9 0.00 0.00 0.00 47 1006.6
20260509224830 76 18 0.0 2.6 0.00 0.00 0.00 48 1006.7
20260509224336 76 18 0.9 2.6 0.00 0.00 0.00 46 1006.7
20260509223830 76 75 0.9 3.5 0.00 0.00 0.00 46 1006.6
20260509223333 76 106 0.9 3.5 0.00 0.00 0.00 46 1006.4
20260509222834 77 90 0.9 1.7 0.00 0.00 0.00 45 1006.4
20260509222341 77 330 0.0 1.7 0.00 0.00 0.00 45 1006.4
20260509221900 77 331 0.0 2.6 0.00 0.00 0.00 44 1006.4
20260509221328 77 308 0.0 2.6 0.00 0.00 0.00 44 1006.5
20260509220903 77 13 0.9 2.6 0.00 0.00 0.00 43 1006.3
20260509220329 77 65 0.0 1.7 0.00 0.00 0.00 44 1006.3
20260509215832 77 71 0.9 1.7 0.00 0.00 0.00 45 1006.3
20260509215358 77 70 0.9 1.7 0.00 0.00 0.00 44 1006.3
20260509214917 76 71 0.0 1.7 0.00 0.00 0.00 44 1006.3
20260509214355 77 71 0.9 2.6 0.00 0.00 0.00 44 1006.3
20260509213833 77 82 0.0 1.7 0.00 0.00 0.00 42 1006.1
20260509213337 78 115 0.0 1.7 0.00 0.00 0.00 42 1006.1
20260509212853 78 268 0.0 3.5 0.00 0.00 0.00 40 1006.1
20260509212337 79 85 0.9 4.3 0.00 0.00 0.00 41 1006.1
20260509211835 79 261 0.0 4.3 0.00 0.00 0.00 41 1006.2
20260509211358 79 249 1.7 3.5 0.00 0.00 0.00 38 1006.2
20260509210858 80 344 0.9 3.5 0.00 0.00 0.00 38 1006.1
20260509210329 81 64 0.9 1.7 0.00 0.00 0.00 39 1006.3
20260509205847 81 64 0.0 1.7 0.00 0.00 0.00 39 1006.3
20260509205346 81 45 0.9 2.6 0.00 0.00 0.00 37 1006.4
20260509204853 81 345 0.9 4.3 0.00 0.00 0.00 38 1006.3
20260509204334 81 17 0.9 4.3 0.00 0.00 0.00 37 1006.3
20260509203832 81 242 0.9 3.5 0.00 0.00 0.00 35 1006.3
20260509203343 81 157 0.9 3.5 0.00 0.00 0.00 39 1006.3
20260509202855 80 355 0.9 3.5 0.00 0.00 0.00 40 1006.3
20260509202357 80 92 0.0 1.7 0.00 0.00 0.00 38 1006.3
20260509201831 79 96 0.9 1.7 0.00 0.00 0.00 39 1006.4
20260509201342 80 89 0.0 3.5 0.00 0.00 0.00 38 1006.4
20260509200849 81 276 0.9 3.5 0.00 0.00 0.00 35 1006.4
20260509200355 82 155 0.9 3.5 0.00 0.00 0.00 37 1006.4
20260509195858 81 132 1.7 3.5 0.00 0.00 0.00 37 1006.5
20260509195341 81 30 0.9 4.3 0.00 0.00 0.00 38 1006.5
20260509194835 81 11 0.9 4.3 0.00 0.00 0.00 37 1006.6
20260509194333 82 78 0.9 4.3 0.00 0.00 0.00 35 1006.7
20260509193906 82 5 0.9 3.5 0.00 0.00 0.00 36 1006.8
20260509193335 82 216 0.9 3.5 0.00 0.00 0.00 37 1006.9
20260509192832 82 360 0.9 3.5 0.00 0.00 0.00 39 1007.1
20260509192327 81 274 0.9 5.2 0.00 0.00 0.00 37 1007.1
20260509191922 82 161 1.7 5.2 0.00 0.00 0.00 36 1007.2
20260509191352 81 64 0.9 4.3 0.00 0.00 0.00 40 1007.2
20260509190856 80 267 0.9 3.5 0.00 0.00 0.00 41 1007.3
20260509190334 80 5 0.9 4.3 0.00 0.00 0.00 39 1007.3
20260509185851 81 261 0.9 2.6 0.00 0.00 0.00 38 1007.4
20260509185401 81 103 0.9 2.6 0.00 0.00 0.00 38 1007.3
20260509184840 80 242 0.0 2.6 0.00 0.00 0.00 40 1007.3
20260509184334 80 61 0.9 3.5 0.00 0.00 0.00 39 1007.3
20260509183912 80 69 0.9 3.5 0.00 0.00 0.00 41 1007.5
20260509183358 80 68 0.0 2.6 0.00 0.00 0.00 42 1007.5
20260509182905 80 69 0.9 4.3 0.00 0.00 0.00 44 1007.5
20260509182345 80 99 0.9 4.3 0.00 0.00 0.00 40 1007.7
20260509181835 81 23 0.0 4.3 0.00 0.00 0.00 41 1007.7
20260509181328 81 98 0.9 4.3 0.00 0.00 0.00 41 1007.7
20260509180851 80 62 0.9 4.3 0.00 0.00 0.00 41 1007.8
20260509180332 80 292 0.9 2.6 0.00 0.00 0.00 41 1007.9
20260509175844 79 242 1.7 2.6 0.00 0.00 0.00 42 1007.8
20260509175345 79 97 0.9 2.6 0.00 0.00 0.00 41 1007.8
20260509174853 78 317 0.9 3.5 0.00 0.00 0.00 44 1007.7
20260509174353 78 292 0.9 3.5 0.00 0.00 0.00 45 1007.8
20260509173835 77 317 0.9 2.6 0.00 0.00 0.00 44 1007.8
20260509173338 77 279 0.9 2.6 0.00 0.00 0.00 42 1008.0
20260509172833 77 79 0.9 2.6 0.00 0.00 0.00 42 1008.2
20260509172333 77 300 0.9 3.5 0.00 0.00 0.00 44 1008.4
20260509171844 78 355 1.7 3.5 0.00 0.00 0.00 44 1008.5
20260509171402 78 63 1.7 3.5 0.00 0.00 0.00 44 1008.6
20260509170846 78 329 1.7 3.5 0.00 0.00 0.00 45 1008.9
20260509170350 78 30 1.7 2.6 0.00 0.00 0.00 46 1008.9
20260509165832 78 83 0.9 2.6 0.00 0.00 0.00 45 1008.7
20260509165334 77 59 0.0 3.5 0.00 0.00 0.00 47 1008.6
20260509164838 77 71 0.9 2.6 0.00 0.00 0.00 45 1008.6
20260509164335 77 88 0.9 3.5 0.00 0.00 0.00 44 1008.5
20260509163843 78 360 0.9 3.5 0.00 0.00 0.00 45 1008.6
20260509163346 78 213 1.7 4.3 0.00 0.00 0.00 46 1008.4
20260509162830 77 37 0.0 3.5 0.00 0.00 0.00 50 1008.5
20260509162402 76 88 0.9 4.3 0.00 0.00 0.00 47 1008.5
20260509161858 75 67 0.9 4.3 0.00 0.00 0.00 49 1008.7
20260509161353 76 11 1.7 4.3 0.00 0.00 0.00 48 1008.8
20260509160859 76 18 0.9 3.5 0.00 0.00 0.00 52 1008.8
20260509160358 75 344 1.7 3.5 0.00 0.00 0.00 52 1008.9
20260509155836 75 70 0.9 2.6 0.00 0.00 0.00 53 1008.9
20260509155333 74 84 0.9 2.6 0.00 0.00 0.00 52 1009.1
20260509154839 74 142 0.9 5.2 0.00 0.00 0.00 55 1009.1
20260509154327 73 30 1.7 5.2 0.00 0.00 0.00 55 1009.4
20260509153838 73 343 0.9 2.6 0.00 0.00 0.00 57 1009.5
20260509153338 73 320 0.9 2.6 0.00 0.00 0.00 57 1009.5
20260509152839 73 49 0.0 2.6 0.00 0.00 0.00 57 1009.5
20260509152359 72 49 0.9 2.6 0.00 0.00 0.00 56 1009.5
20260509151858 72 86 0.9 2.6 0.00 0.00 0.00 58 1009.6
20260509151404 71 86 0.0 2.6 0.00 0.00 0.00 59 1009.8
20260509150845 71 91 0.9 4.3 0.00 0.00 0.00 58 1010.2
20260509150343 71 94 0.9 4.3 0.00 0.00 0.00 58 1010.5
20260509145841 72 132 0.0 2.6 0.00 0.00 0.00 59 1010.5
20260509145342 71 159 0.9 2.6 0.00 0.00 0.00 60 1010.5
20260509144829 71 106 0.0 4.3 0.00 0.00 0.00 60 1010.5
20260509144335 71 126 0.9 4.3 0.00 0.00 0.00 61 1010.6
20260509143840 71 15 0.0 2.6 0.00 0.00 0.00 62 1010.6
20260509143407 71 84 0.0 1.7 0.00 0.00 0.00 64 1010.6
20260509142845 71 340 0.0 1.7 0.00 0.00 0.00 62 1010.6
20260509142342 71 340 0.0 1.7 0.00 0.00 0.00 62 1010.6
20260509141846 70 340 0.9 1.7 0.00 0.00 0.00 62 1010.7
20260509141359 69 340 0.0 1.7 0.00 0.00 0.00 64 1010.8
20260509140850 69 340 0.9 1.7 0.00 0.00 0.00 65 1010.9
20260509140349 69 55 0.0 1.7 0.00 0.00 0.00 65 1010.9
20260509135850 68 56 0.0 1.7 0.00 0.00 0.00 66 1011.0
20260509135326 68 56 0.0 0.9 0.00 0.00 0.00 66 1011.0
20260509134834 68 56 0.0 1.7 0.00 0.00 0.00 67 1010.9
20260509134338 68 53 0.0 2.6 0.00 0.00 0.00 67 1011.0
20260509133841 67 53 0.9 2.6 0.00 0.00 0.00 66 1011.0
20260509133331 67 69 0.0 1.7 0.00 0.00 0.00 67 1011.0
20260509132844 67 69 0.0 1.7 0.00 0.00 0.00 67 1011.0
20260509132403 67 70 0.0 1.7 0.00 0.00 0.00 68 1011.1
20260509131904 66 46 0.0 2.6 0.00 0.00 0.00 69 1011.1
20260509131345 66 109 0.9 1.7 0.00 0.00 0.00 68 1011.0
20260509130847 66 142 0.0 1.7 0.00 0.00 0.00 69 1011.0
20260509130334 65 142 0.9 2.6 0.00 0.00 0.00 70 1011.2
20260509125853 65 348 0.9 2.6 0.00 0.01 0.00 71 1011.1
20260509125333 65 245 0.0 3.5 0.00 0.01 0.00 74 1011.1
20260509124839 64 188 0.0 0.9 0.00 0.01 0.00 75 1011.2
20260509124331 63 38 0.0 0.9 0.00 0.01 0.00 77 1011.3
20260509123828 63 28 0.0 0.9 0.00 0.01 0.00 77 1011.2
20260509123330 62 28 0.0 0.9 0.00 0.01 0.00 78 1011.3
20260509122834 62 28 0.0 0.9 0.00 0.01 0.00 80 1011.4
20260509122404 61 28 0.0 0.9 0.00 0.01 0.00 81 1011.3
20260509121850 61 28 0.0 0.9 0.00 0.01 0.00 82 1011.3
20260509121358 60 14 0.0 0.9 0.00 0.01 0.00 82 1011.2
20260509120836 60 14 0.0 0.9 0.00 0.01 0.00 84 1011.2
20260509120344 59 14 0.0 0.9 0.00 0.01 0.00 84 1011.2
20260509115841 59 14 0.0 0.0 0.00 0.01 0.00 85 1011.2
20260509115346 58 14 0.0 0.0 0.00 0.01 0.00 85 1011.2
20260509114917 58 14 0.0 0.0 0.00 0.01 0.00 86 1011.3
20260509114410 58 18 0.0 0.0 0.00 0.01 0.00 86 1011.3
20260509113837 57 18 0.0 0.0 0.00 0.01 0.00 86 1011.3
20260509113345 57 18 0.0 0.9 0.00 0.01 0.00 86 1011.3
20260509112843 56 18 0.0 0.9 0.00 0.01 0.00 86 1011.3
20260509112330 56 18 0.0 0.0 0.00 0.01 0.00 86 1011.3
20260509111831 56 18 0.0 0.0 0.00 0.01 0.00 86 1011.2
20260509111357 56 18 0.0 0.0 0.00 0.01 0.00 86 1011.2
20260509110842 56 18 0.0 0.0 0.00 0.01 0.00 86 1011.3
20260509110337 56 18 0.0 0.0 0.00 0.01 0.00 86 1011.2
20260509105836 55 18 0.0 0.0 0.00 0.01 0.00 86 1011.3
20260509105411 55 18 0.0 0.0 0.00 0.01 0.00 86 1011.3
20260509104856 55 18 0.0 0.0 0.00 0.01 0.00 86 1011.3
20260509104335 55 18 0.0 0.9 0.00 0.01 0.00 86 1011.3
20260509103846 55 18 0.0 0.9 0.00 0.01 0.00 86 1011.5
20260509103348 55 18 0.0 0.9 0.00 0.01 0.00 85 1011.4
20260509102842 55 18 0.0 0.9 0.00 0.01 0.00 85 1011.4
20260509102344 55 13 0.0 0.0 0.00 0.01 0.00 85 1011.4
20260509101844 55 13 0.0 0.9 0.00 0.01 0.00 85 1011.4
20260509101417 55 13 0.0 0.9 0.00 0.01 0.00 85 1011.5
20260509100856 55 13 0.0 0.9 0.00 0.01 0.00 84 1011.4
20260509100359 55 13 0.0 0.9 0.00 0.01 0.00 84 1011.4
20260509095842 55 13 0.0 0.9 0.00 0.01 0.00 84 1011.4
20260509095351 55 13 0.0 0.9 0.00 0.01 0.00 84 1011.4
20260509094837 55 13 0.0 0.9 0.00 0.01 0.00 84 1011.4
20260509094331 56 13 0.0 0.9 0.00 0.01 0.00 84 1011.4
20260509093847 56 13 0.0 2.6 0.00 0.01 0.00 84 1011.3
20260509093404 55 32 0.0 1.7 0.00 0.01 0.00 85 1011.4
20260509092852 55 34 0.0 0.9 0.00 0.01 0.00 85 1011.4
20260509092357 55 34 0.0 1.7 0.00 0.01 0.00 85 1011.3
20260509091834 55 27 0.0 1.7 0.00 0.01 0.00 85 1011.2
20260509091331 54 26 0.0 0.9 0.00 0.01 0.00 85 1011.3
20260509090830 54 27 0.0 0.9 0.00 0.01 0.00 84 1011.2
20260509090337 54 27 0.0 0.9 0.00 0.01 0.00 84 1011.4
20260509085847 54 27 0.0 0.0 0.00 0.01 0.00 84 1011.4
20260509085339 55 27 0.0 0.0 0.00 0.01 0.00 84 1011.4
20260509084903 55 27 0.0 0.0 0.00 0.01 0.00 83 1011.4
20260509084342 55 27 0.0 0.0 0.00 0.01 0.00 83 1011.6
20260509083825 55 27 0.0 0.0 0.00 0.01 0.00 83 1011.6
20260509083336 55 27 0.0 1.7 0.00 0.01 0.00 83 1011.5
20260509082838 55 27 0.0 1.7 0.00 0.01 0.00 83 1011.5
20260509082342 55 27 0.0 2.6 0.00 0.01 0.00 83 1011.4
20260509081857 54 88 0.0 0.0 0.00 0.01 0.00 82 1011.4
20260509081359 55 88 0.0 0.9 0.00 0.01 0.00 82 1011.4
20260509080832 55 88 0.0 0.9 0.00 0.01 0.00 82 1011.3
20260509080348 55 87 0.0 0.9 0.00 0.01 0.00 82 1011.3
20260509075848 55 88 0.0 0.0 0.00 0.01 0.00 81 1011.3
20260509075344 55 87 0.0 0.0 0.00 0.01 0.00 81 1011.3
20260509074845 55 87 0.0 0.0 0.00 0.01 0.00 81 1011.3
20260509074342 55 88 0.0 0.0 0.00 0.01 0.00 81 1011.4
20260509073837 55 88 0.0 0.0 0.00 0.01 0.00 81 1011.4
20260509073338 55 88 0.0 0.9 0.00 0.01 0.00 81 1011.4
20260509072844 55 88 0.0 0.9 0.00 0.01 0.00 80 1011.5
20260509072342 55 87 0.0 0.0 0.00 0.01 0.00 80 1011.6
20260509071840 55 87 0.0 0.9 0.00 0.01 0.00 80 1011.6
20260509071347 55 87 0.0 0.9 0.00 0.01 0.00 80 1011.6
20260509070843 56 88 0.0 0.0 0.00 0.01 0.00 79 1011.7
20260509070332 56 87 0.0 0.0 0.00 0.01 0.00 79 1011.8
20260509065831 56 88 0.0 0.0 0.00 0.01 0.00 78 1011.7
20260509065350 56 88 0.0 0.9 0.00 0.01 0.00 78 1011.8
20260509064829 57 87 0.0 2.6 0.00 0.01 0.00 77 1011.8
20260509064329 57 87 0.9 2.6 0.00 0.01 0.00 77 1011.8
20260509063834 57 25 0.0 0.9 0.00 0.01 0.00 77 1011.8
20260509063344 57 25 0.0 1.7 0.00 0.01 0.00 76 1011.9
20260509062858 57 25 0.0 1.7 0.00 0.01 0.00 76 1011.8
20260509062342 57 26 0.0 2.6 0.00 0.01 0.00 76 1012.0
20260509061858 57 25 0.0 2.6 0.00 0.01 0.00 76 1012.0
20260509061357 58 83 0.0 1.7 0.00 0.01 0.00 76 1012.2
20260509060840 58 84 0.0 1.7 0.00 0.01 0.00 76 1012.0
20260509060352 57 121 0.0 1.7 0.00 0.01 0.00 76 1012.1
20260509055829 57 127 0.0 2.6 0.00 0.01 0.00 76 1012.1
20260509055336 57 44 0.0 2.6 0.00 0.01 0.00 76 1012.1
20260509054908 57 43 0.0 1.7 0.00 0.01 0.00 76 1012.0
20260509054407 57 43 0.0 1.7 0.00 0.01 0.00 76 1012.1
20260509053834 57 48 0.0 0.9 0.00 0.01 0.00 76 1012.2
20260509053333 57 49 0.0 1.7 0.00 0.01 0.00 76 1012.1
20260509052831 57 48 0.0 1.7 0.00 0.01 0.00 75 1012.2
20260509052342 57 38 0.0 1.7 0.00 0.01 0.00 75 1012.2
20260509051843 57 71 0.0 2.6 0.00 0.01 0.00 75 1012.1
20260509051327 58 71 0.9 2.6 0.00 0.01 0.00 75 1012.0
20260509050847 58 19 0.0 0.9 0.00 0.01 0.00 75 1012.0
20260509050400 58 15 0.0 1.7 0.00 0.01 0.00 75 1012.2
20260509045901 58 339 0.0 1.7 0.00 0.01 0.00 75 1012.1
20260509045340 58 339 0.0 1.7 0.00 0.01 0.00 74 1012.2
20260509044854 58 338 0.0 1.7 0.00 0.01 0.00 74 1012.2
20260509044347 58 338 0.0 0.9 0.00 0.01 0.00 73 1012.1
20260509043844 58 339 0.0 2.6 0.00 0.01 0.00 73 1012.0
20260509043327 58 339 0.0 2.6 0.00 0.01 0.00 73 1012.1
20260509042847 58 65 0.0 0.9 0.00 0.01 0.00 72 1012.1
20260509042334 58 65 0.0 0.9 0.00 0.01 0.00 72 1012.2
20260509041905 58 65 0.0 0.9 0.00 0.01 0.00 71 1012.0
20260509041338 58 65 0.0 2.6 0.00 0.01 0.00 71 1012.1
20260509040901 58 65 0.0 2.6 0.00 0.01 0.00 71 1012.1
20260509040341 58 360 0.0 2.6 0.00 0.01 0.00 71 1012.2
20260509035842 58 344 0.0 1.7 0.00 0.01 0.01 71 1012.2
20260509035341 58 346 0.0 1.7 0.00 0.01 0.01 71 1012.4
20260509034831 58 355 0.0 1.7 0.00 0.01 0.01 70 1012.4
20260509034354 58 355 0.0 1.7 0.00 0.01 0.01 69 1012.4
20260509033835 59 355 0.0 1.7 0.00 0.01 0.01 69 1012.3
20260509033404 59 355 0.9 3.5 0.00 0.01 0.01 69 1012.5
20260509032837 58 360 0.9 3.5 0.00 0.01 0.01 69 1012.6
20260509032356 58 79 0.0 2.6 0.00 0.01 0.01 69 1012.7
20260509031834 58 74 0.0 0.9 0.00 0.01 0.01 70 1012.6
20260509031409 57 74 0.0 1.7 0.00 0.01 0.01 70 1012.5
20260509030907 57 74 0.0 2.6 0.00 0.01 0.01 70 1012.5
20260509030335 56 47 0.0 2.6 0.00 0.01 0.01 71 1012.5
20260509025830 55 113 0.0 2.6 0.00 0.01 0.01 72 1012.7
20260509025333 55 76 0.0 1.7 0.00 0.01 0.01 73 1012.8
20260509024838 54 17 0.0 0.0 0.00 0.01 0.01 73 1012.4
20260509024340 54 17 0.0 0.0 0.00 0.01 0.01 74 1012.7
20260509023855 54 17 0.0 0.0 0.00 0.01 0.01 73 1012.9
20260509023400 55 17 0.0 0.0 0.00 0.01 0.01 72 1012.9
20260509022838 55 17 0.0 0.0 0.00 0.01 0.01 71 1012.8
20260509022345 55 17 0.0 0.0 0.00 0.01 0.01 71 1012.7
20260509021831 55 17 0.0 0.0 0.00 0.01 0.01 70 1012.4
20260509021338 55 17 0.0 0.0 0.00 0.01 0.01 69 1012.6
20260509020834 55 17 0.0 0.0 0.00 0.01 0.01 68 1012.5
20260509020334 56 17 0.0 0.0 0.00 0.01 0.01 68 1012.6
20260509015850 56 17 0.0 0.0 0.00 0.01 0.01 67 1012.6
20260509015347 56 17 0.0 0.0 0.00 0.01 0.01 67 1012.5
20260509014854 56 17 0.0 0.0 0.00 0.01 0.01 66 1012.3
20260509014409 56 17 0.0 0.0 0.00 0.01 0.01 65 1012.3
20260509013838 57 17 0.0 0.0 0.00 0.01 0.01 64 1012.3